Chatham, MA

4:47 PM EST on December 07, 2019 (GMT -0500)
Chatham Municipal

Weather History for KCQX - October, 2019

Change the Weather History Date:

Thursday, October 31, 2019

  Actual Average Record
Temperature  
Mean Temperature 63 °F -  
Max Temperature 66 °F 54 °F 66 °F (2019)
Min Temperature 60 °F 41 °F 30 °F (2008)
Degree Days  
Heating Degree Days 2    
Growing Degree Days 13 (Base 50)    
Moisture  
Dew Point 62 °F    
Average Humidity 97    
Maximum Humidity 100    
Minimum Humidity 90    
Precipitation  
Precipitation 0.42 in - - ()
Sea Level Pressure  
Sea Level Pressure 30.04 in    
Wind  
Wind Speed 9 mph (SSW)    
Max Wind Speed 17 mph    
Max Gust Speed 30 mph    
Visibility 6 miles    
Events Rain    
Averages and records for this station are not official NWS values.
T = Trace of Precipitation, MM = Missing Value Source: NWS Daily Summary

Daily Weather History Graph

Daily Weather History Graph

Search for Another Location

Airport or City:

Astronomy

Oct. 31, 2019 Rise Set
Actual Time 7:10 AM EDT 5:36 PM EDT
Civil Twilight 6:41 AM EDT 6:04 PM EDT
Nautical Twilight 6:08 AM EDT 6:37 PM EDT
Astronomical Twilight 5:36 AM EDT 7:09 PM EDT
Moon 10:57 AM EDT (10/31) 8:27 PM EDT (10/31)
Length of Visible Light 11h 23m
Length of Day
10h 25m
Waxing Crescent, 15% of the Moon is Illuminated
Oct 31
Waxing Crescent
Nov 4
First Quarter
Nov 12
Full
Nov 19
Last Quarter
Nov 26
New

Hourly Weather History & Observations

Time (EDT) Temp. Dew Point Humidity Pressure Visibility Wind Dir Wind Speed Gust Speed Precip Events Conditions
12:04 AM 60.1 °F 60.1 °F 100% 30.16 in 3.0 mi South 9.2 mph 16.1 mph 0.01 in Rain Light Rain
12:11 AM 60.1 °F 60.1 °F 100% 30.16 in 2.0 mi South 8.1 mph - 0.01 in Rain Light Rain
12:21 AM 60.1 °F 60.1 °F 100% 30.15 in 6.0 mi South 9.2 mph - 0.01 in   Overcast
12:37 AM 60.1 °F 60.1 °F 100% 30.15 in 7.0 mi South 8.1 mph 18.4 mph 0.01 in   Overcast
12:52 AM 61.0 °F 60.1 °F 97% 30.15 in 5.0 mi South 8.1 mph - 0.02 in Rain Light Rain
1:01 AM 61.0 °F 61.0 °F 100% 30.14 in 5.0 mi South 8.1 mph - 0.00 in Rain Light Rain
1:36 AM 61.0 °F 61.0 °F 100% 30.15 in 7.0 mi Variable 4.6 mph - 0.00 in   Overcast
1:52 AM 61.0 °F 60.1 °F 97% 30.15 in 8.0 mi South 8.1 mph - 0.00 in   Overcast
2:52 AM 61.0 °F 61.0 °F 100% 30.12 in 9.0 mi SSW 8.1 mph - N/A   Mostly Cloudy
3:28 AM 61.0 °F 60.1 °F 97% 30.12 in 9.0 mi SSW 10.4 mph 18.4 mph 0.00 in Rain Light Rain
3:47 AM 60.8 °F 59.0 °F 94% 30.12 in 8.0 mi SSW 5.8 mph - 0.00 in Rain Light Rain
3:52 AM 60.1 °F 60.1 °F 100% 30.12 in 8.0 mi SSW 8.1 mph - 0.00 in Rain Light Rain
4:15 AM 62.1 °F 61.0 °F 96% 30.11 in 9.0 mi SSW 6.9 mph - 0.01 in Rain Light Rain
4:24 AM 62.1 °F 61.0 °F 96% 30.11 in 8.0 mi SSW 6.9 mph - 0.01 in Rain Light Rain
4:41 AM 61.0 °F 60.1 °F 97% 30.11 in 6.0 mi Variable 5.8 mph 16.1 mph 0.02 in Rain Light Rain
4:52 AM 61.0 °F 60.1 °F 97% 30.11 in 6.0 mi Variable 5.8 mph - 0.03 in Rain Light Rain
5:37 AM 61.0 °F 61.0 °F 100% 30.10 in 1.8 mi SW 6.9 mph - 0.09 in Rain Heavy Rain
5:52 AM 63.0 °F 62.1 °F 97% 30.10 in 2.0 mi SSW 8.1 mph 17.3 mph 0.16 in Rain Light Rain
6:49 AM 62.6 °F 62.6 °F 100% 30.08 in 1.8 mi Variable 5.8 mph - 0.10 in Rain Rain
6:52 AM 62.1 °F 62.1 °F 100% 30.09 in 1.8 mi South 8.1 mph - 0.11 in Rain Rain
7:02 AM 60.1 °F 60.1 °F 100% 30.08 in 2.0 mi South 4.6 mph - 0.00 in Rain Light Rain
7:23 AM 62.1 °F 61.0 °F 96% 30.08 in 4.0 mi South 9.2 mph 19.6 mph 0.03 in Rain Light Rain
7:36 AM 62.1 °F 61.0 °F 96% 30.08 in 2.5 mi SSW 12.7 mph 21.9 mph 0.03 in Rain Light Rain
7:52 AM 61.0 °F 61.0 °F 100% 30.08 in 1.5 mi SSW 12.7 mph 23.0 mph 0.05 in Rain Light Rain
8:12 AM 61.0 °F 61.0 °F 100% 30.08 in 3.0 mi SSW 10.4 mph 18.4 mph 0.02 in Rain Light Rain
8:22 AM 62.1 °F 61.0 °F 96% 30.07 in 4.0 mi South 11.5 mph 23.0 mph 0.02 in   Overcast
8:35 AM 63.0 °F 62.1 °F 97% 30.06 in 7.0 mi South 10.4 mph 24.2 mph 0.02 in   Overcast
8:52 AM 63.0 °F 62.1 °F 97% 30.07 in 3.0 mi South 11.5 mph 27.6 mph 0.02 in Rain Light Rain
8:57 AM 63.0 °F 62.1 °F 97% 30.06 in 1.8 mi South 11.5 mph 27.6 mph 0.01 in Rain Light Rain
9:09 AM 63.0 °F 62.1 °F 97% 30.06 in 3.0 mi South 12.7 mph 24.2 mph 0.02 in Rain Light Rain
9:31 AM 63.0 °F 62.1 °F 97% 30.05 in 4.0 mi South 11.5 mph 19.6 mph 0.02 in Rain Light Rain
9:38 AM 63.0 °F 62.1 °F 97% 30.06 in 7.0 mi South 11.5 mph 25.3 mph 0.02 in   Overcast
9:47 AM 62.6 °F 62.6 °F 100% 30.05 in 7.0 mi South 13.8 mph 25.3 mph 0.02 in Rain Light Rain
9:52 AM 64.0 °F 63.0 °F 96% 30.06 in 8.0 mi South 15.0 mph 28.8 mph 0.02 in   Overcast
10:17 AM 64.0 °F 63.0 °F 96% 30.04 in 4.0 mi South 11.5 mph 27.6 mph 0.00 in Rain Light Rain
10:24 AM 64.0 °F 63.0 °F 96% 30.04 in 7.0 mi South 11.5 mph 27.6 mph 0.00 in   Overcast
10:52 AM 64.0 °F 63.0 °F 96% 30.04 in 6.0 mi South 12.7 mph 26.5 mph 0.00 in Rain Light Rain
11:15 AM 63.0 °F 62.1 °F 97% 30.03 in 2.0 mi South 11.5 mph 23.0 mph 0.01 in Rain Light Rain
11:28 AM 63.0 °F 63.0 °F 100% 30.02 in 4.0 mi South 9.2 mph 21.9 mph 0.01 in   Overcast
11:45 AM 64.0 °F 64.0 °F 100% 30.01 in 4.0 mi South 12.7 mph 23.0 mph 0.01 in Rain Light Rain
11:52 AM 64.9 °F 64.0 °F 97% 30.01 in 5.0 mi South 11.5 mph 26.5 mph 0.01 in Rain Light Rain
12:52 PM 64.0 °F 62.1 °F 93% 29.99 in 8.0 mi SSW 12.7 mph 25.3 mph 0.00 in   Overcast
1:52 PM 64.9 °F 62.1 °F 90% 29.98 in 9.0 mi SSW 11.5 mph 26.5 mph N/A   Overcast
2:52 PM - - N/A% 29.96 in 9.0 mi South 10.4 mph 23.0 mph N/A   Overcast
3:52 PM - - N/A% 29.94 in 9.0 mi South 12.7 mph 26.5 mph N/A   Overcast
4:52 PM - - N/A% 29.91 in 9.0 mi South 12.7 mph 25.3 mph N/A   Partly Cloudy
5:52 PM - - N/A% 29.89 in 9.0 mi South 11.5 mph 20.7 mph N/A   Mostly Cloudy
6:48 PM - - N/A% 29.88 in 9.0 mi South 10.4 mph 25.3 mph N/A   Overcast
6:52 PM - - N/A% 29.88 in 9.0 mi SSW 12.7 mph 25.3 mph N/A   Overcast
7:52 PM - - N/A% 29.87 in 9.0 mi SSW 11.5 mph 27.6 mph N/A   Overcast
8:52 PM - - N/A% 29.84 in 9.0 mi South 13.8 mph 25.3 mph N/A   Overcast
9:52 PM 64.9 °F 62.1 °F 90% 29.82 in 9.0 mi South 12.7 mph 28.8 mph N/A   Overcast
10:52 PM 66.0 °F 63.0 °F 90% 29.78 in 10.0 mi South 13.8 mph 28.8 mph N/A   Overcast
11:52 PM 66.0 °F 63.0 °F 90% 29.77 in 9.0 mi South 17.3 mph 29.9 mph N/A   Overcast